Location: Klickitat County Star Party
(45.8642°N, 120.6771°W)
Time: 03:33:31
(UTC-07:00)

SO-50 - Pass Details

Date: 26 May 2019
Orbit: 586 x 700 km, 64.6° (Epoch: 16 June)

Event Time Altitude Azimuth Distance (km) Brightness Sun altitude
Rises 00:35:40 0° 328° (NNW) 3,093 ? -22.8°
Reaches altitude 10° 00:39:05 10° 352° (N) 2,167 ? -22.9°
Maximum altitude 00:41:52 15° 26° (NNE) 1,847 ? -22.9°
Drops below altitude 10° 00:44:38 10° 61° (ENE) 2,143 ? -23.0°
Sets 00:47:58 0° 85° (E) 3,038 ? -23.0°
